Weather in Nerchinsky Zavod

Russia / Zabaykalsky Krai     51°18′42″N   119°36′26″E
temp.,
°C
wind,
m/s
gust,
m/s
humid.,
%
clouds,
%
prec.,
mm/h
press.,
hPa
HPBL,
m
18 april, sun
sun1800:00+4s334248 0.0 100729
03:00+2s33552 0.0 100731
06:000s22640 0.0 100720
09:00+6s36430 0.0 1005448
12:00+11ssw6730100 0.0 1002809
15:00+15ssw672598 0.0 9991469
18:00+15wnw583091 0.0 9981768
21:00+8nw1116410 0.0 1005867
19 april, mon
mon1900:000nnw814472 0.0 1013889
03:00−2nnw710488 0.0 1017936
06:00−5nw610445 0.0 1020612
09:00−2nnw57405 0.0 10221226
12:00+2nnw56190 0.0 10211557
15:00+5nw471127 0.0 10192577
18:00+5nw5895 0.0 10182714
21:00+1nw22170 0.0 102017
20 april, tue
tue2000:00−2wnw11200 0.0 102110
03:00−3se11225 0.0 102010
06:00−4sse112485 0.0 101910
09:00+4s4111646 0.0 1016675
12:00+10ssw9121725 0.0 10121174
15:00+15sw8101786 0.0 10081736
18:00+15ssw7102188 0.0 10071411
21:00+10s2229100 0.0 100714
21 april, wed
wed2100:00+7s2236100 0.0 100712
03:00+6s114432 0.0 100710
06:00+5s22520 0.0 100710
09:00+11s363780 0.0 1006385
12:00+17s5626100 0.0 1005874
15:00+21ssw5720100 0.0 10031787
18:00+23sw13169 0.0 10011389
21:00+15ne2229100 0.0 100311
22 april, thu
thu2200:00+12nne21355 0.0 100511
03:00+7n34597 0.0 100851
06:00+4nnw3473100 0.0 101190
09:00+8n685534 0.0 1014634
12:00+12nne664031 0.0 10151000
15:00+15nne7734100 0.0 10151360
18:00+13nne6739100 0.0 10171015
21:00+8nne71253100 0.0 1023475